DW7011 Weather Reports


time (UTC)temp
F
wind
direction
speed
knots
gust
knots
rain 1hr
in
rain 24hr
in
rain mn
in
humidity
%
barometer
mb
20260510064332 49 10 0.0 0.0 0.00 0.14 0.00 92 1011.4
20260510063331 51 11 0.0 0.9 0.00 0.14 0.00 93 1011.3
20260510061347 51 36 2.6 5.2 0.00 0.14 0.00 94 1011.7
20260510055332 50 23 0.0 0.9 0.00 0.14 0.00 93 1011.3
20260510053323 50 96 0.0 0.9 0.00 0.14 0.00 93 1011.0
20260510052339 51 96 0.0 0.9 0.00 0.14 0.00 93 1011.0
20260510045334 51 96 0.0 0.0 0.00 0.14 0.00 93 1011.2
20260510044351 51 96 0.0 0.0 0.00 0.14 0.00 92 1011.2
20260510041330 52 96 0.0 0.0 0.00 0.14 0.00 91 1011.4
20260510040327 52 96 0.0 0.0 0.00 0.14 0.00 91 1011.4
20260510035322 52 96 0.0 0.9 0.00 0.14 0.14 91 1011.4
20260510033336 53 96 0.0 0.9 0.00 0.14 0.14 90 1011.4
20260510032335 53 97 0.0 0.9 0.00 0.14 0.14 89 1011.3
20260510031325 53 97 0.0 0.9 0.00 0.14 0.14 89 1011.5
20260510030325 54 97 0.0 0.0 0.00 0.14 0.14 88 1011.4
20260510025322 54 97 0.0 0.9 0.00 0.14 0.14 88 1011.3
20260510023337 55 96 0.0 1.7 0.00 0.14 0.14 87 1011.2
20260510022331 55 136 1.7 2.6 0.00 0.14 0.14 87 1011.1
20260510020342 56 147 0.0 2.6 0.00 0.14 0.14 86 1011.1
20260510015338 56 122 0.9 2.6 0.00 0.14 0.14 87 1011.0
20260510014330 55 126 0.0 0.9 0.00 0.14 0.14 87 1010.8
20260510013327 55 125 0.0 0.9 0.00 0.14 0.14 86 1010.8
20260510012323 55 125 0.0 0.9 0.00 0.14 0.14 85 1010.7
20260510011337 55 125 0.0 0.9 0.00 0.14 0.14 85 1010.4
20260510010335 56 125 0.0 0.9 0.00 0.14 0.14 84 1010.4
20260510005323 56 125 0.0 0.9 0.00 0.14 0.14 84 1010.4
20260510004341 56 125 0.0 0.9 0.00 0.14 0.14 83 1010.2
20260510003338 57 125 0.0 0.0 0.00 0.14 0.14 81 1010.2
20260510002334 58 125 0.0 0.9 0.00 0.14 0.14 80 1010.0
20260510001349 58 125 0.0 0.9 0.00 0.14 0.14 79 1009.9
20260510000341 59 125 0.0 0.9 0.00 0.14 0.14 77 1009.8
20260509235337 60 124 0.0 1.7 0.00 0.14 0.14 75 1009.8
20260509234335 61 146 0.0 0.9 0.00 0.14 0.14 74 1009.9
20260509233335 61 157 0.9 2.6 0.00 0.14 0.14 73 1009.7
20260509231344 62 115 0.9 2.6 0.00 0.14 0.14 72 1009.8
20260509230327 62 129 0.9 3.5 0.00 0.14 0.14 72 1009.8
20260509225325 62 159 1.7 3.5 0.00 0.14 0.14 71 1009.9
20260509224340 62 75 1.7 4.3 0.00 0.14 0.14 71 1009.9
20260509223337 62 83 1.7 3.5 0.00 0.14 0.14 70 1009.8
20260509222323 63 162 1.7 3.5 0.00 0.14 0.14 70 1009.9
20260509221341 63 110 0.0 2.6 0.00 0.14 0.14 70 1010.0
20260509220337 63 135 0.0 1.7 0.00 0.14 0.14 70 1009.9
20260509214335 62 89 0.9 3.5 0.00 0.14 0.14 70 1010.1
20260509213330 63 115 0.9 1.7 0.00 0.14 0.14 70 1010.3
20260509212344 62 5 0.9 1.7 0.00 0.14 0.14 70 1010.5
20260509211330 63 112 0.9 1.7 0.00 0.14 0.14 70 1010.2
20260509210323 63 134 0.9 1.7 0.00 0.14 0.14 70 1010.1
20260509205338 63 81 0.0 2.6 0.00 0.14 0.14 68 1010.1
20260509203325 63 101 0.9 2.6 0.00 0.14 0.14 68 1010.2
20260509202344 62 115 0.0 1.7 0.00 0.14 0.14 70 1010.3
20260509201331 63 86 0.9 1.7 0.00 0.14 0.14 69 1010.3
20260509200328 63 304 0.9 2.6 0.00 0.14 0.14 69 1010.3
20260509194410 64 46 0.9 1.7 0.00 0.14 0.14 70 1010.7
20260509193337 62 133 0.9 3.5 0.00 0.14 0.14 73 1010.8
20260509192326 61 12 1.7 3.5 0.00 0.14 0.14 73 1010.9
20260509191325 60 274 0.0 3.5 0.00 0.14 0.14 74 1010.9
20260509185330 59 137 0.9 3.5 0.00 0.14 0.14 77 1011.1
20260509184331 59 129 1.7 4.3 0.00 0.14 0.14 78 1011.3
20260509181333 57 108 0.9 3.5 0.00 0.14 0.14 81 1011.9
20260509180349 57 155 0.9 3.5 0.00 0.14 0.14 84 1011.9
20260509175346 57 113 1.7 3.5 0.00 0.14 0.14 81 1012.0
20260509174333 57 160 1.7 2.6 0.00 0.14 0.14 81 1012.2
20260509173331 57 217 0.9 0.9 0.00 0.14 0.14 80 1012.4
20260509172327 57 138 0.0 2.6 0.00 0.14 0.14 82 1012.3
20260509171341 57 110 0.0 2.6 0.00 0.14 0.14 81 1012.3
20260509170328 57 143 1.7 3.5 0.00 0.14 0.14 80 1012.4
20260509162337 57 260 0.9 4.3 0.04 0.14 0.14 85 1012.5
20260509161327 56 144 0.0 1.7 0.07 0.14 0.14 87 1012.4
20260509160324 55 111 0.0 2.6 0.10 0.14 0.14 88 1012.0
20260509155338 55 111 0.9 2.6 0.12 0.14 0.14 87 1011.9
20260509153328 55 95 0.9 3.5 0.12 0.12 0.12 87 1012.8
20260509151343 56 175 0.9 1.7 0.07 0.07 0.07 84 1012.8
20260509150331 57 238 0.9 0.9 0.04 0.04 0.04 80 1012.8
20260509145327 57 236 0.0 4.3 0.01 0.01 0.01 75 1013.1
20260509144324 58 240 0.9 1.7 0.00 0.00 0.00 73 1012.9
20260509143341 58 327 0.9 5.2 0.00 0.00 0.00 71 1012.7
20260509142459 59 263 1.7 5.2 0.00 0.00 0.00 69 1012.8
20260509141332 59 235 0.9 2.6 0.00 0.00 0.00 70 1012.7
20260509140326 58 252 0.9 4.3 0.00 0.00 0.00 69 1012.4
20260509135339 58 249 1.7 3.5 0.00 0.00 0.00 70 1012.4
20260509134326 58 245 0.9 1.7 0.00 0.00 0.00 72 1012.1
20260509132337 57 257 2.6 3.5 0.00 0.00 0.00 72 1012.3
20260509131335 57 227 0.9 1.7 0.00 0.00 0.00 72 1012.0
20260509130331 57 255 0.0 1.7 0.00 0.00 0.00 72 1012.0
20260509125325 57 254 0.0 3.5 0.00 0.00 0.00 72 1012.0
20260509124341 56 250 1.7 2.6 0.00 0.00 0.00 72 1012.1
20260509123329 56 113 0.0 1.7 0.00 0.00 0.00 73 1012.1
20260509122327 56 245 0.0 1.7 0.00 0.00 0.00 73 1012.1
20260509121326 56 257 0.9 1.7 0.00 0.00 0.00 72 1012.1
20260509120344 56 117 0.0 1.7 0.00 0.00 0.00 72 1011.9
20260509115328 55 150 0.0 1.7 0.00 0.00 0.00 74 1011.8
20260509114329 55 119 0.0 0.9 0.00 0.00 0.00 74 1011.9
20260509112324 54 120 0.0 0.9 0.00 0.00 0.00 76 1011.6
20260509111343 54 121 0.0 1.7 0.00 0.00 0.00 77 1011.7
20260509110341 54 93 0.0 0.9 0.00 0.00 0.00 79 1011.7
20260509105324 53 89 0.9 1.7 0.00 0.00 0.00 79 1011.6
20260509103323 53 105 0.0 0.9 0.00 0.00 0.00 79 1011.4
20260509102340 53 105 0.9 0.9 0.00 0.00 0.00 79 1011.3
20260509100330 53 105 0.0 0.0 0.00 0.00 0.00 79 1011.3
20260509095329 53 105 0.0 0.9 0.00 0.00 0.00 80 1011.3
20260509094349 53 125 0.0 0.9 0.00 0.00 0.00 80 1011.3
20260509093336 53 126 0.0 0.0 0.00 0.00 0.00 82 1011.3
20260509091329 53 126 0.0 0.0 0.00 0.00 0.00 80 1011.4
20260509085327 53 126 0.0 0.9 0.00 0.00 0.00 79 1011.6
20260509084345 53 126 0.0 0.9 0.00 0.00 0.00 79 1011.7
20260509083343 53 126 0.0 0.0 0.00 0.00 0.00 80 1011.8
20260509082331 53 126 0.0 0.9 0.00 0.00 0.00 81 1011.8
20260509081325 53 126 0.0 0.9 0.00 0.00 0.00 81 1011.9
20260509075338 52 126 0.0 0.0 0.00 0.00 0.00 82 1011.8
20260509074331 52 126 0.0 0.9 0.00 0.00 0.00 81 1011.9
20260509073348 53 126 0.0 0.9 0.00 0.00 0.00 80 1011.9
20260509072333 53 126 0.0 0.9 0.00 0.00 0.00 80 1011.9
20260509071328 53 126 0.0 1.7 0.00 0.00 0.00 80 1012.0
20260509070327 53 50 0.0 0.9 0.00 0.00 0.00 79 1012.0
20260509065344 53 50 0.0 1.7 0.00 0.00 0.00 79 1012.0